Weather Roundup
Issued by NWS Springfield, MO

Home | Current Version | Previous Version | Text Only | Print | Product List | Glossary On
Versions: 1 2 3 4 5 6 7 8 9 10 11 12 13 14 15 16 17 18 19 20 21 22 23 24 25 26 27 28 29 30 31 32 33 34 35 36 37 38 39 40 41 42 43 44 45 46 47 48 49 50
000
NZUS99 KSGF 292207
HRRSGF

HOURLY WEATHER
NATIONAL WEATHER SERVICE SPRINGFIELD MO
500 PM CDT FRI JUL 29 2016

......SGF CWA......

CITY           SKY/WX    TMP DP  RH WIND       PRES   REMARKS
SPRINGFIELD    CLOUDY    86  67  52 N13       29.96S
JOPLIN         SUNNY     86  69  56 N8        29.96F HX  90
WEST PLAINS    CLOUDY    71  67  87 NE3       30.00F
ROLLA          MOSUNNY   80  70  71 W7        29.95S
OSAGE BEACH    MOSUNNY   82  72  71 VRB3      29.96S
BRANSON        CLOUDY    77  72  83 CALM      30.00S

......SURROUNDING SGF CWA......

CITY           SKY/WX    TMP DP  RH WIND       PRES   REMARKS
CHANUTE        MOSUNNY   86  68  54 VRB6      29.96F
PARSONS        MOSUNNY   85  70  60 N5        29.97S
COFFEYVILLE    MOSUNNY   87  68  52 NW6       29.96S HX  90
EMPORIA        SUNNY     85  67  54 N10       29.98S
GROVE OK       SUNNY     86  72  62 N3        29.96S HX  92
ROGERS AR      CLOUDY    83  72  69 N6        29.99R
SILOAM SPRINGS SUNNY     84  66  54 NE3       29.98F
HARRISON AR    CLOUDY    76  71  85 S6        29.99F
NEAR YELLVILLE CLOUDY    73  68  83 CALM      29.94F

......KANSAS AND MISSOURI......

CITY           SKY/WX    TMP DP  RH WIND       PRES   REMARKS
KANSAS CTY INT PTSUNNY   82  63  52 N8        29.98F
DOWNTOWN KC    MOSUNNY   87  62  43 NW10      29.96S
COLUMBIA       MOSUNNY   83  68  60 NW10      29.95S
SEDALIA        SUNNY     84  69  60 N7        29.97S
ST JOSEPH      MOSUNNY   83  64  52 N10       29.99S
ST LOUIS       PTSUNNY   86  69  56 N8        29.92S HX  90
SPIRIT OF STL  CLOUDY    87  69  54 VRB3      29.90F HX  91
KIRKSVILLE     MOSUNNY   81  61  50 NW10      29.98R
WICHITA        PTSUNNY   86  66  51 NW7       29.99R
TOPEKA         MOSUNNY   86  63  45 CALM      29.97F
OLATHE         MOSUNNY   84  61  45 N8        29.98S

......TENNESSEE......

CITY           SKY/WX    TMP DP  RH WIND       PRES   REMARKS
MEMPHIS        TSTM      84  79  84 W8        29.91F HX  96
NASHVILLE      PTSUNNY   86  71  60 SW7       29.93S HX  91

......ARKANSAS.......

CITY           SKY/WX    TMP DP  RH WIND       PRES   REMARKS
FAYETTEVILLE   SUNNY     86  72  62 NW5       29.97S HX  92
FT SMITH       SUNNY     89  65  44 CALM      29.92F HX  91
LITTLE ROCK    CLOUDY    76  72  87 NE15G24   29.96F

......OKLAHOMA.......

CITY           SKY/WX    TMP DP  RH WIND       PRES   REMARKS
TULSA          MOSUNNY   90  66  45 N10       29.94R HX  92
PONCA CITY     MOSUNNY   85  66  53 VRB3      29.98S
MCALESTER      SUNNY     92  69  47 W3        29.93R HX  97
OKLAHOMA CITY  MOSUNNY   87  65  47 NE5       29.98F

......IOWA............

CITY           SKY/WX    TMP DP  RH WIND       PRES   REMARKS
DES MOINES     CLOUDY    73  64  73 N7        29.98F
QUAD CITIES    PTSUNNY   81  67  62 N9        29.91R

......ILLINOIS........

CITY           SKY/WX    TMP DP  RH WIND       PRES   REMARKS
QUINCY         MOSUNNY   79  68  69 NW8       29.94R
CHICAGO        CLOUDY    74  70  87 NE14      29.92S



USA.gov is the U.S. government's official web portal to all federal, state and local government web resources and services.